Home   Weather   Naha   Past weeks

Flag for Japan Past Weather in Naha, Okinawa, Japan — Yesterday and Last 2 Weeks

Now
86 °F

Passing clouds.


Feels Like: 95 °F
Forecast: 81 / 92 °F
Wind: 6 mph from South

Location: Naha Airport

Current Time: Aug 18, 2017 at 10:06:26 pm

Latest Report: Aug 18, 2017 at 9:30 pm


Visibility: N/A

Pressure: 29.89 "Hg

Humidity: 70%

Dew Point: 75 °F

Location of NahaLocation

Past Weather in Naha — Graph

°F

Naha Temperature Yesterday

Maximum temperature yesterday: 90 °F (at 11:00 am)
Minimum temperature yesterday: 82 °F (at 6:00 am)
Average temperature yesterday: 87 °F

High & Low Weather Summary for the Past Weeks

 TemperatureHumidityPressure
High91 °F (Aug 4, 12:00 pm)94% (Aug 10, 10:30 pm)29.89 "Hg (Aug 10, 10:30 pm)
Low81 °F (Aug 12, 9:00 pm)59% (Aug 18, 2:30 pm)29.53 "Hg (Aug 3, 8:00 pm)
Average87 °F78%29.72 "Hg
* Reported Aug 3 8:00 pm — Aug 18 8:30 pm, Naha. Weather by CustomWeather, © 2017

Note: Actual official high and low records may vary slightly from our data, if they occured in-between our weather recording intervals... More about our weather records

Advertising

Naha Weather History for the Previous 24 Hours

Scroll right to see more
 ConditionsComfort  
Time TempWeatherWind HumidityBarometerVisibility
8:30 pm
Fri, Aug 18
88 °FPassing clouds.6 mph66%29.86 "HgN/A
8:00 pm88 °FPassing clouds.6 mph70%29.86 "HgN/A
7:30 pm88 °FSprinkles. Passing clouds.7 mph66%29.83 "HgN/A
7:00 pm88 °FPassing clouds.7 mph66%29.83 "HgN/A
6:30 pm88 °FPassing clouds.7 mph66%29.83 "HgN/A
6:00 pm90 °FPassing clouds.6 mph63%29.83 "HgN/A
5:30 pm90 °FPassing clouds.7 mph59%29.83 "HgN/A
5:00 pm90 °FPassing clouds.6 mph63%29.83 "HgN/A
4:30 pm90 °FPassing clouds.6 mph59%29.83 "HgN/A
4:00 pm90 °FScattered clouds.7 mph63%29.83 "HgN/A
3:30 pm90 °FScattered clouds.7 mph63%29.83 "HgN/A
3:00 pm90 °FPassing clouds.8 mph63%29.83 "HgN/A
2:30 pm91 °FPassing clouds.8 mph59%29.83 "HgN/A
2:00 pm90 °FPassing clouds.7 mph63%29.83 "HgN/A
1:30 pm90 °FSprinkles. Scattered clouds.6 mph63%29.86 "HgN/A
1:00 pm90 °FSprinkles. Scattered clouds.7 mph63%29.86 "HgN/A
12:30 pm88 °FRain showers. Passing clouds.7 mph66%29.86 "HgN/A
12:00 pm88 °FPassing clouds.7 mph70%29.86 "HgN/A
11:30 am90 °FPassing clouds.10 mph67%29.86 "HgN/A
11:00 am90 °FPassing clouds.9 mph67%29.89 "HgN/A
10:30 am90 °FScattered showers. Passing clouds.8 mph63%29.89 "HgN/A
10:00 am88 °FScattered showers. Passing clouds.7 mph66%29.89 "HgN/A
9:30 am90 °FPassing clouds.6 mph63%29.89 "HgN/A
9:00 am88 °FPassing clouds.6 mph70%29.89 "HgN/A
8:30 am88 °FPassing clouds.5 mph70%29.89 "HgN/A
8:00 am86 °FPassing clouds.3 mph70%29.86 "HgN/A
7:30 am86 °FPassing clouds.1 mph75%29.86 "HgN/A
7:00 am84 °FPassing clouds.1 mph79%29.86 "HgN/A
6:30 am84 °FPassing clouds.3 mph79%29.86 "HgN/A
6:00 am84 °FPassing clouds.3 mph79%29.86 "HgN/A
5:30 am84 °FPassing clouds.3 mph79%29.86 "HgN/A
5:00 am84 °FPassing clouds.2 mph79%29.83 "HgN/A
4:30 am84 °FPassing clouds.3 mph79%29.83 "HgN/A
4:00 am84 °FPassing clouds.5 mph79%29.83 "HgN/A
3:30 am84 °FPassing clouds.3 mph79%29.83 "HgN/A
3:00 am84 °FPassing clouds.3 mph79%29.83 "HgN/A
2:30 am84 °FPassing clouds.3 mph79%29.83 "HgN/A
2:00 am84 °FPassing clouds.3 mph79%29.83 "HgN/A
1:30 am84 °FPassing clouds.3 mph79%29.83 "HgN/A
1:00 am84 °FPassing clouds.6 mph79%29.86 "HgN/A
12:30 am84 °FPassing clouds.5 mph79%29.86 "HgN/A
12:00 am84 °FPassing clouds.6 mph79%29.86 "HgN/A
11:30 pm
Thu, Aug 17
84 °FPassing clouds.2 mph74%29.86 "HgN/A
11:00 pm84 °FPassing clouds.3 mph74%29.86 "HgN/A
10:30 pm86 °FPassing clouds.3 mph70%29.86 "HgN/A
10:00 pm86 °FPassing clouds.3 mph70%29.86 "HgN/A
Weather by CustomWeather, © 2017

See weather overviewHow to use our weather pages